Flag for Lithuania Weather past 2 weeks in Kaunas, Lithuania

Now
39 °F

Overcast.


Feels Like: 37 °F
Forecast: 36 / 44 °F
Wind: 3 mph from West

Location: Kaunas

Current Time: Feb 28, 2015 at 4:24:12 PM

Latest Report: Feb 28, 2015 at 3:50 PM


Visibility: 5 mi

Pressure: 30.01 "Hg

Humidity: 81%

Dew point: 34 °F

Location of KaunasLocation

Historic Weather in Kaunas — Graph

°F

Kaunas temperature yesterday

Maximum temperature yesterday: 39 °F (at 2:50 PM)
Minimum temperature yesterday: 34 °F (at 6:20 AM)
Average temperature yesterday: 36 °F

Past Weeks' High & Low Weather Summary

 TemperatureHumidityPressure
High45 °F (Feb 21, 12:50 PM)100% (Feb 15, 5:20 AM)30.77 "Hg (Feb 15, 5:20 AM)
Low16 °F (Feb 16, 7:20 AM)19% (Feb 16, 2:50 PM)29.53 "Hg (Feb 21, 7:20 PM)
Average34 °F73%30.10 "Hg
* Reported Feb 13 3:20 PM — Feb 28 3:20 PM, Kaunas, Weather by CustomWeather, © 2015

Note: Actual official high and low records may vary slightly from our data, if they occured in-between our weather recording intervals... More about our weather records

Advertising

Kaunas weather history for previous 24 hours

 ConditionsComfort  
Time TempWeatherWind HumidityBarometerVisibility
3:20 PM
Sat, Feb 28
39 °FOvercast.3 mph81%30.01 "Hg6 mi
2:50 PM39 °FOvercast.5 mph75%30.01 "Hg6 mi
2:20 PM39 °FOvercast.3 mph81%30.01 "HgN/A
1:50 PM37 °FMostly cloudy.3 mph87%30.01 "HgN/A
1:20 PM37 °FCloudy.3 mph81%30.01 "HgN/A
12:50 PM39 °FMore clouds than sun.1 mph75%30.01 "HgN/A
12:20 PM37 °FCloudy.No wind87%30.01 "Hg6 mi
11:50 AM36 °FMostly cloudy.2 mph93%30.01 "Hg4 mi
11:20 AM36 °FFog.1 mph93%30.01 "Hg1 mi
10:50 AM36 °FFog.5 mph93%30.01 "Hg1 mi
10:20 AM36 °FFog.3 mph93%30.01 "Hg2 mi
9:50 AM36 °FFog.5 mph93%30.01 "Hg1 mi
9:20 AM34 °FFog.5 mph100%30.01 "Hg1 mi
8:50 AM34 °FFog.5 mph100%29.98 "Hg1 mi
8:20 AM34 °FFog.5 mph93%29.98 "Hg0 mi
7:50 AM34 °FChilly.5 mph93%29.98 "Hg1 mi
7:20 AM34 °FChilly.3 mph93%29.98 "Hg1 mi
6:50 AM34 °FFog.3 mph93%29.98 "Hg1 mi
6:20 AM34 °FFog.3 mph93%29.98 "Hg1 mi
5:20 AM34 °FFog.2 mph93%29.98 "Hg1 mi
4:50 AM34 °FRain. Fog.2 mph93%29.98 "Hg1 mi
4:20 AM34 °FRain. Fog.1 mph93%29.98 "Hg1 mi
3:50 AM34 °FRain. Fog.No wind93%29.98 "Hg1 mi
3:20 AM34 °FLight rain. Low clouds.1 mph93%29.98 "Hg1 mi
2:50 AM34 °FLight rain. Low clouds.No wind93%29.98 "Hg1 mi
2:20 AM34 °FLight rain. Low clouds.No wind93%29.98 "Hg1 mi
1:50 AM34 °FDrizzle. Low clouds.1 mph93%29.98 "Hg1 mi
1:20 AM34 °FLight rain. Low clouds.No wind93%29.98 "Hg1 mi
12:50 AM34 °FLight rain. Mostly cloudy.1 mph93%29.98 "Hg1 mi
12:20 AM34 °FLight rain. Low clouds.2 mph93%29.98 "Hg1 mi
11:50 PM
Fri, Feb 27
34 °FLight rain. Fog.2 mph93%29.98 "Hg1 mi
11:20 PM34 °FLight rain. Fog.1 mph93%30.01 "Hg1 mi
10:50 PM34 °FLight rain. Fog.2 mph93%30.01 "Hg2 mi
10:20 PM36 °FLight rain. Fog.3 mph87%30.01 "Hg2 mi
9:50 PM36 °FLight rain. Fog.2 mph87%30.01 "Hg2 mi
9:20 PM36 °FLight rain. Fog.2 mph93%30.01 "Hg2 mi
8:50 PM36 °FLight rain. Fog.2 mph93%30.01 "Hg2 mi
8:20 PM36 °FLight rain. Fog.2 mph93%30.01 "Hg2 mi
7:50 PM36 °FLight rain. Fog.2 mph93%30.01 "Hg3 mi
7:20 PM36 °FLight rain. Fog.2 mph93%30.01 "Hg2 mi
6:50 PM36 °FLight rain. Fog.2 mph93%30.01 "Hg2 mi
6:20 PM37 °FLight rain. Fog.2 mph87%30.01 "Hg2 mi
5:50 PM37 °FLight rain. Fog.2 mph87%30.01 "Hg3 mi
5:20 PM37 °FLight rain. Fog.2 mph87%30.01 "Hg3 mi
4:50 PM37 °FLight rain. Mostly cloudy.5 mph87%30.01 "Hg4 mi
4:20 PM37 °FLight rain. Mostly cloudy.3 mph87%30.01 "Hg4 mi
Weather by CustomWeather, © 2015

See weather overviewHow to use our weather pages